Notices

What's New in latest Release from April 7th, 2021:

- Updated Glossary, including Speed of Maximum Gust, and Total Hourly Precipitation

- Updated national and regional climate services offices contacts and prices information

- Addition of station inventory lists for 1981-2010, 1971-2000, and 1961-1990 Normals.

If you haven't already, please take our survey and provide feedback about our website: https://eccc.sondage-survey.ca/f/LanguageSelection.aspx?s=442ca660-fcf1-47c0-95a9-59707d6fd709

Hourly Data Report for March 18, 2012

HALIFAX STANFIELD INT'L A
NOVA SCOTIA

44°52'48.060" N
63°30'00.050" W
145.40 m
8202250
71395
YHZ

Download Data

Hourly Data (March 2012)
Hourly Data Report for March 18, 2012
TIME
LST
Temp Definition
°C
Dew Point Definition
°C
Rel Hum Definition
%
Precip. Amount Definition
mm

Wind Dir Definition
10's deg

Wind Spd Definition
km/h
Visibility Definition
km
Stn Press Definition
kPa
Hmdx Definition


Wind Chill Definition


Weather Definition


00:00 1.2 -1.9 80     0 24.1 100.74     Mainly Clear
01:00 3.2 -2.5 66   25 15 24.1 100.70     Clear
02:00 1.7 -3.0 71   20 11 24.1 100.65     Clear
03:00 1.9 -3.1 69   22 17 24.1 100.56     Clear
04:00 1.3 -3.4 71   26 11 24.1 100.57     Clear
05:00 1.9 -3.7 66   21 20 24.1 100.56     Clear
06:00 0.7 -3.6 73   20 17 24.1 100.54     Mostly Cloudy
07:00 1.7 -3.0 71   20 20 24.1 100.52     Mainly Clear
08:00 3.9 -3.7 58   22 19 24.1 100.45     Mostly Cloudy
09:00 7.0 -3.7 46   23 32 24.1 100.42     Mostly Cloudy
10:00 6.9 -3.6 47   23 33 24.1 100.40     Mostly Cloudy
11:00 7.1 -2.5 50   23 26 24.1 100.33     Cloudy
12:00 8.9 -0.1 53   21 28 24.1 100.16     Mostly Cloudy
13:00 11.0 1.9 53   24 26 24.1 100.13     Mostly Cloudy
14:00 11.0 2.7 57   22 24 24.1 99.99     Mostly Cloudy
15:00 12.8 4.7 58   22 26 24.1 99.87     Mostly Cloudy
16:00 12.7 5.2 60   21 20 24.1 99.83     Mainly Clear
17:00 12.0 5.5 64   23 20 24.1 99.76     Mainly Clear
18:00 11.1 5.7 69   23 15 24.1 99.74     Mainly Clear
19:00 8.3 4.8 79   21 11 24.1 99.71     Mainly Clear
20:00 6.2 3.9 85   22 15 24.1 99.70     Mainly Clear
21:00 6.4 4.6 88   16 7 24.1 99.72     Clear
22:00 7.7 5.6 87   25 9 24.1 99.69     Mainly Clear
23:00 10.3 6.0 75   25 13 24.1 99.65     Mainly Clear

Notes on Data Quality.

Legend

  • E = Estimated
  • M = Missing
  • NA = Not Available*
  • [empty] = Indicates an unobserved value
Date modified: